Theta_e
327 326 326 326 325 327 328 328 328 328 328 327 328 327 326 324 321 317 319 318 323 320 318 316 316 315 314 313 313 312 312 311 310 310 310 310 310 309 309 310 309 309 309
327 325 325 325 325 327 328 329 328 328 328 328 327 327 327 323 320 316 317 318 319 319 316 315 315 315 315 313 312 312 311 311 310 309 309 309 308 307 308 308 308 308 308
327 325 324 324 325 327 329 329 329 329 328 326 325 326 326 322 319 314 314 316 315 316 317 315 314 314 315 314 313 312 311 311 310 309 309 308 307 307 306 306 306 306 307
328 325 323 324 326 328 328 328 328 327 327 324 324 325 324 317 318 313 312 315 316 317 314 314 313 313 314 315 314 313 312 311 310 310 308 308 307 306 305 305 305 306 306
329 327 326 326 327 327 327 328 327 327 325 325 322 322 322 317 317 315 315 315 315 314 316 313 312 311 312 314 315 314 313 311 310 309 309 308 307 306 305 305 305 305 305
329 329 328 327 327 327 326 327 326 327 326 324 317 315 318 318 318 317 316 315 314 313 313 312 311 307 308 312 314 315 314 312 311 310 309 308 307 306 305 305 305 305 305
328 329 328 328 328 326 326 327 327 325 324 323 314 313 311 313 317 316 316 315 314 311 310 309 309 307 306 310 312 313 314 314 312 310 309 309 307 306 306 306 305 305 305
329 328 329 328 328 326 326 326 325 323 323 321 314 312 309 310 313 314 315 313 313 312 308 307 306 304 305 306 308 311 312 313 312 311 309 309 308 307 306 306 306 305 304
328 329 328 328 328 327 325 325 325 324 320 322 320 315 306 306 313 314 310 311 311 311 309 306 304 303 301 303 303 305 309 310 311 311 310 309 308 307 307 306 306 305 304
327 327 327 327 327 327 325 326 325 325 324 319 319 317 316 316 310 310 314 310 309 308 309 307 304 302 300 296 296 300 302 305 307 308 309 308 308 307 306 306 305 305 304
328 327 327 327 326 327 326 325 325 324 325 323 321 320 319 318 314 310 308 314 310 308 308 307 305 299 296 292 294 296 300 303 304 305 306 306 306 306 306 305 304 304 304
328 327 327 327 326 326 325 325 326 325 324 324 323 323 319 315 314 312 308 310 311 312 303 300 300 295 291 292 293 294 298 300 302 302 303 303 303 304 304 304 303 303 303
326 326 326 325 326 326 325 325 325 324 324 324 323 323 322 320 321 317 312 310 309 302 295 296 295 295 293 295 296 293 294 297 299 300 301 301 301 301 301 302 302 302 302
327 327 326 326 326 325 325 325 325 324 324 325 323 323 321 321 321 318 314 312 308 297 294 298 298 297 298 295 296 293 293 295 297 299 301 301 300 300 300 301 301 301 300
327 327 327 325 326 326 325 324 324 323 323 322 321 320 319 319 319 318 316 314 310 305 302 303 300 298 295 298 295 294 293 293 295 297 299 300 300 300 300 300 300 300 300
328 325 326 325 325 325 325 324 323 321 319 318 318 317 317 317 317 316 313 311 305 307 302 303 301 296 297 293 293 292 293 292 293 295 297 298 299 299 299 299 299 299 298
326 325 324 324 324 324 324 322 319 318 316 317 317 315 314 315 314 308 302 300 299 299 298 296 295 297 295 293 293 292 293 294 292 293 295 296 297 297 298 298 298 298 297
326 324 323 322 322 322 322 320 318 317 316 315 315 312 312 305 305 302 299 300 299 299 297 295 297 295 291 292 292 294 292 291 290 291 293 294 295 295 296 296 296 296 296
323 322 321 320 319 320 319 318 318 317 314 314 310 307 306 304 301 299 297 296 295 295 295 293 292 291 292 293 292 292 289 288 291 292 292 293 293 294 294 294 294 294 294
320 319 318 317 317 317 317 315 312 308 305 303 302 302 301 300 300 298 295 295 294 294 291 290 291 291 291 289 288 287 287 289 290 291 290 291 292 292 293 294 294 293 294
311 311 308 306 305 304 302 303 302 301 300 298 297 297 296 293 291 295 294 294 293 291 290 290 288 287 287 285 286 289 287 290 291 291 291 292 291 291 291 291 291 291 292
299 297 296 297 297 296 295 296 298 298 297 297 296 294 293 291 293 292 293 292 293 291 287 288 288 288 288 288 289 289 288 285 286 292 288 288 291 289 291 291 291 291 291
296 296 296 295 293 293 294 294 293 298 297 297 295 293 291 291 290 293 292 292 291 292 292 292 290 290 289 289 289 286 285 286 287 289 286 286 289 287 289 288 289 290 290
295 294 293 292 291 291 293 292 291 295 294 293 293 292 292 291 291 289 291 290 289 290 291 290 290 290 290 290 287 287 286 285 286 287 284 282 288 286 289 288 289 289 289
290 290 289 289 290 290 292 291 290 290 289 289 290 291 291 290 289 290 289 287 287 288 289 290 290 291 291 290 289 287 284 283 283 285 285 283 285 284 286 287 288 286 286
288 288 287 288 287 289 291 291 290 290 287 288 288 287 286 289 288 290 286 286 284 286 286 284 285 286 288 288 288 286 285 282 282 282 283 281 283 282 283 285 283 283 283
Wind_Speed
6 6 6 5 5 5 4 4 4 4 4 4 4 5 4 2 2 1 1 4 4 3 3 1 0 1 1 2 2 2 3 3 2 2 3 4 5 5 5 8 9 10 11
6 6 6 6 5 5 4 4 4 5 4 4 5 5 4 3 3 2 1 3 6 5 1 1 2 3 3 2 2 2 3 4 4 3 3 2 3 2 5 5 7 8 10
8 8 6 6 5 5 5 5 5 4 4 4 5 4 4 3 3 3 3 3 5 9 9 6 5 5 5 5 5 5 5 5 5 4 3 2 2 0 1 3 5 6 8
10 8 6 6 6 5 5 5 5 5 5 4 4 4 3 5 7 8 7 7 6 6 7 10 9 8 9 9 8 7 7 7 7 6 4 4 3 2 2 3 4 5 7
11 9 7 7 7 6 6 6 6 6 5 5 4 3 4 5 6 6 8 8 8 7 5 9 9 8 7 10 11 11 10 9 9 9 8 7 4 4 3 4 5 5 6
12 10 8 8 8 7 7 6 8 7 7 4 3 3 4 5 6 7 8 8 9 9 8 8 7 7 9 11 13 13 13 11 11 11 11 9 8 6 6 6 6 6 7
13 12 9 10 9 9 9 10 9 9 7 4 3 4 5 8 9 9 9 9 11 10 10 8 7 6 6 11 12 14 15 14 13 12 12 12 10 9 8 9 8 7 8
14 12 13 11 11 9 11 11 10 7 7 7 4 2 3 5 10 11 9 10 12 9 10 10 9 9 8 7 8 12 14 16 15 14 14 14 13 12 10 10 11 10 9
15 15 15 13 12 11 10 12 11 12 8 8 11 4 2 5 2 5 10 10 11 10 9 10 12 12 11 8 7 10 16 15 15 16 16 16 15 13 13 12 12 11 11
16 16 16 15 14 10 12 10 10 11 11 10 5 10 9 6 4 6 6 8 9 10 11 9 10 12 10 5 4 6 9 11 15 18 19 17 16 16 15 14 13 12 12
17 17 16 15 14 10 12 13 13 13 11 11 10 7 10 10 9 8 8 10 5 8 9 9 9 6 4 4 8 13 19 18 21 17 17 16 18 18 16 16 14 14 14
11 15 15 14 14 13 14 13 14 15 13 13 11 11 10 7 7 8 8 10 11 6 4 2 7 6 10 11 14 18 20 21 22 20 18 17 17 18 15 16 15 15 15
10 12 15 14 12 14 14 13 13 13 14 13 14 11 11 11 10 9 8 10 8 1 2 4 7 7 8 10 12 17 19 22 21 19 17 17 16 17 17 18 18 17 17
11 14 14 15 15 15 14 13 10 11 12 11 16 13 10 11 10 9 9 8 8 4 3 7 5 8 9 8 11 17 12 19 18 18 20 20 19 19 20 20 20 19 18
11 13 13 13 14 14 14 14 10 12 11 11 11 11 10 9 8 7 7 7 8 8 5 4 5 7 7 9 9 10 11 15 21 23 22 21 22 20 21 21 21 20 20
13 12 13 13 13 13 13 13 10 10 9 8 7 9 9 8 9 7 7 7 5 7 6 1 4 4 7 5 7 10 9 11 17 19 21 21 21 21 21 21 21 20 20
13 14 13 13 13 12 12 11 10 9 8 9 9 10 11 10 7 4 2 2 2 3 4 2 2 3 3 5 4 6 8 9 7 18 19 20 21 22 21 22 22 22 20
13 13 12 12 12 12 11 12 10 9 10 10 10 9 9 2 3 3 3 4 3 4 3 5 2 1 4 1 4 6 6 6 6 12 20 21 23 23 23 23 22 23 22
12 11 11 11 11 10 9 10 10 9 9 8 4 4 3 4 3 2 2 2 2 2 3 2 1 1 1 2 2 4 4 5 7 11 18 22 24 24 23 23 24 22 20
10 9 8 8 7 7 8 6 5 4 4 4 4 3 3 3 4 3 3 3 3 3 2 2 1 0 1 1 2 3 4 6 7 8 13 15 14 18 23 24 23 20 20
3 4 5 4 4 4 3 5 5 5 5 5 4 4 4 3 5 2 1 1 2 2 1 1 1 2 3 3 3 2 4 5 6 6 8 8 8 9 11 19 20 21 24
5 5 6 6 6 3 7 9 7 6 5 5 5 5 5 4 4 4 4 3 4 5 4 4 3 3 3 3 2 3 3 2 3 2 3 7 7 8 8 8 16 19 21
5 5 5 6 6 5 9 10 9 7 7 6 6 6 5 4 5 5 6 5 8 11 9 5 4 3 2 3 1 2 3 3 5 3 2 7 4 8 7 7 17 19 20
7 6 6 6 6 4 8 11 10 8 6 6 6 5 6 6 6 6 6 5 4 3 4 1 1 1 1 0 1 1 2 3 4 5 3 5 6 7 6 7 15 17 18
6 5 5 6 6 4 9 11 8 6 6 6 5 5 5 4 5 6 4 3 2 1 1 1 2 3 4 4 3 1 4 4 5 3 2 4 4 6 6 7 5 10 13
8 7 6 5 4 5 9 10 8 5 6 5 5 5 6 5 5 7 4 4 3 1 2 2 3 4 4 1 3 3 1 4 4 4 2 3 4 4 6 1 4 4 5
Wind_Direction
191 188 189 193 197 194 205 195 190 195 199 203 208 215 209 211 151 89 47 63 47 87 99 91 237 230 158 153 118 92 89 110 146 148 114 108 80 55 47 37 35 28 26
196 197 198 203 204 210 208 216 205 209 215 222 228 239 232 185 171 151 121 108 100 105 146 235 274 259 238 202 176 169 184 182 205 198 157 132 85 56 45 33 32 22 19
204 203 204 206 210 208 222 222 217 228 230 219 241 218 200 183 185 192 184 204 177 176 176 197 219 236 241 225 209 217 222 216 223 233 219 183 131 338 33 34 17 14 11
206 206 208 209 205 211 220 226 225 230 238 236 233 214 197 196 206 198 206 210 214 222 188 195 203 219 226 226 219 220 222 230 234 250 242 244 230 277 310 5 358 347 351
210 215 215 217 210 216 220 226 231 240 235 234 241 221 195 231 227 229 246 235 233 243 234 189 203 212 236 233 226 220 220 227 234 235 240 237 237 261 292 310 311 322 334
214 215 223 221 216 220 223 221 229 223 241 248 209 219 239 246 233 238 240 239 239 235 235 231 209 215 225 239 232 230 227 224 230 234 242 241 232 239 259 267 281 306 320
215 217 222 222 217 222 224 224 224 231 228 203 182 229 246 245 239 236 234 240 236 233 234 231 227 231 212 225 234 231 230 229 230 233 241 249 248 247 251 269 276 286 302
215 217 221 221 217 221 225 225 220 225 240 188 200 231 256 221 235 236 235 240 242 234 233 232 231 229 232 227 229 232 245 238 236 232 234 240 239 245 251 264 277 285 293
213 214 219 220 218 219 225 222 221 222 232 211 216 210 221 238 344 197 232 238 236 235 232 228 226 225 221 211 225 233 233 234 248 247 241 237 241 243 251 256 266 277 288
214 214 219 220 221 218 225 225 221 224 226 236 197 229 245 265 255 283 217 239 244 246 239 232 235 233 224 207 206 246 277 254 240 245 237 238 240 241 247 252 261 272 282
218 216 218 219 222 222 226 225 219 223 225 236 230 230 230 240 240 251 269 271 205 231 234 237 242 220 186 186 208 211 228 236 242 233 242 240 246 247 250 258 266 273 280
218 222 222 224 224 224 224 226 228 227 225 231 240 234 234 224 221 234 248 256 262 249 181 187 228 191 192 211 217 223 222 231 239 239 235 235 243 251 257 265 269 270 277
217 218 214 217 219 223 225 226 228 231 227 231 235 239 240 243 247 246 247 258 268 171 208 230 217 209 217 220 227 219 227 228 236 244 242 243 243 252 252 256 264 270 270
215 216 213 218 222 226 229 230 230 231 231 233 240 241 243 245 241 241 240 258 267 245 213 243 218 218 230 216 224 214 222 231 235 243 240 236 237 239 242 248 253 260 267
220 217 214 217 224 226 227 226 228 233 228 233 236 240 240 244 246 244 241 237 242 274 258 196 225 208 225 226 219 220 218 207 219 230 235 237 238 238 243 247 253 259 265
221 215 217 219 221 223 224 225 227 229 221 224 226 230 234 235 235 230 227 229 215 243 263 191 224 189 215 219 215 214 221 214 223 231 237 244 248 247 250 255 261 263 269
215 216 217 219 222 224 223 219 218 222 215 228 226 227 233 232 233 210 153 121 179 183 236 254 252 236 246 242 250 228 232 230 224 232 239 244 248 252 253 255 260 264 268
215 217 217 218 221 222 220 217 212 208 216 221 228 219 232 199 187 152 171 206 214 210 203 250 283 264 242 337 264 248 232 225 226 234 237 241 243 248 250 252 255 261 264
218 217 216 218 218 218 212 209 213 214 210 218 207 171 167 177 193 171 195 201 203 213 234 236 296 43 17 300 265 252 263 234 242 247 243 244 246 249 254 257 258 261 264
212 210 204 204 206 206 215 210 194 154 120 116 116 121 138 178 205 195 197 203 200 224 193 212 223 286 291 130 254 254 250 230 251 244 248 254 257 254 253 256 260 263 264
161 139 126 109 102 103 108 125 133 133 127 123 118 121 83 44 23 351 106 171 164 225 212 202 182 176 196 208 219 200 256 277 264 246 258 253 252 252 254 254 256 256 257
126 121 122 129 118 103 117 117 130 128 129 138 140 129 123 114 108 130 181 159 185 197 178 182 197 224 231 233 216 254 273 295 302 92 286 285 252 262 262 257 260 260 261
129 130 128 129 121 124 139 133 129 141 148 158 160 149 138 141 168 162 180 175 200 204 211 200 205 222 236 204 146 206 226 255 269 327 292 283 264 267 268 269 266 263 262
146 141 139 136 132 150 157 150 145 141 138 145 152 158 155 163 180 163 174 182 195 204 221 213 237 307 307 28 200 25 341 291 277 263 218 267 283 274 278 266 266 264 266
140 149 148 145 143 162 164 150 142 138 142 140 122 139 142 154 152 170 131 154 175 201 158 191 278 299 272 276 238 215 287 300 302 287 211 287 305 296 278 272 272 282 284
145 143 134 139 151 154 162 163 156 145 126 128 118 121 108 107 131 153 146 166 162 171 73 30 29 21 12 92 321 192 237 279 300 290 103 273 321 341 307 109 308 290 304